Home   Weather   Italy   Livorno   Past weeks
Flag for Italy

Past Weather in Livorno, Italy — Yesterday and Last 2 Weeks

Currently: 82 °F. Clear. (Weather station: Pisa / S. Giusto, Italy). See more current weather

Past Weather in Livorno — Graph

°F

Livorno Temperature Yesterday

Maximum temperature yesterday: 93 °F (at 3:15 pm)
Minimum temperature yesterday: 75 °F (at 11:45 pm)
Average temperature yesterday: 83 °F

High & Low Weather Summary for the Past Weeks

 TemperatureHumidityPressure
High93 °F (Jul 22, 3:15 pm)100% (Jul 9, 1:15 am)30.04 "Hg (Jul 9, 1:15 am)
Low66 °F (Jul 9, 3:45 am)36% (Jul 15, 1:15 pm)29.77 "Hg (Jul 20, 6:45 pm)
Average81 °F78%29.92 "Hg
* Reported Jul 8 9:15 pm — Jul 23 9:15 pm, Livorno. Weather by CustomWeather, © 2024

Note: Actual official high and low records may vary slightly from our data, if they occured in-between our weather recording intervals... More about our weather records

Livorno Weather History for the Previous 24 Hours

Scroll right to see more
 ConditionsComfort  
Time TempWeatherWind HumidityBarometerVisibility
9:15 pm
Tue, Jul 23
84 °FClear.6 mph84%29.95 "Hg10 mi
8:45 pm84 °FSunny.5 mph84%29.95 "Hg10 mi
8:15 pm84 °FSunny.8 mph84%29.95 "Hg10 mi
7:45 pm86 °FSunny.12 mph75%29.92 "Hg10 mi
7:15 pm86 °FSunny.12 mph75%29.92 "Hg10 mi
6:45 pm86 °FSunny.13 mph75%29.92 "Hg10 mi
6:15 pm88 °FSunny.12 mph70%29.95 "Hg10 mi
5:45 pm88 °FSunny.13 mph66%29.95 "Hg10 mi
5:15 pm90 °FSunny.13 mph67%29.95 "Hg10 mi
4:15 pm90 °FSunny.14 mph63%29.95 "Hg10 mi
2:45 pm90 °FSunny.13 mph67%29.95 "Hg10 mi
2:15 pm90 °FSunny.10 mph67%29.95 "Hg10 mi
1:45 pm88 °FSunny.10 mph70%29.95 "Hg10 mi
1:15 pm88 °FSunny.12 mph70%29.95 "Hg10 mi
12:45 pm90 °FSunny.10 mph71%29.95 "Hg10 mi
12:15 pm88 °FSunny.9 mph70%29.95 "Hg10 mi
11:45 am88 °FSunny.8 mph66%29.95 "Hg10 mi
11:15 am88 °FSunny.8 mph66%29.95 "Hg10 mi
10:45 am86 °FSunny.3 mph70%29.95 "Hg10 mi
10:15 am84 °FSunny.2 mph74%29.95 "Hg10 mi
9:45 am82 °FSunny.2 mph79%29.95 "Hg10 mi
9:15 am81 °FSunny.2 mph84%29.95 "Hg10 mi
8:45 am79 °FSunny.2 mph94%29.95 "Hg10 mi
8:15 am77 °FSunny.3 mph94%29.95 "Hg10 mi
7:45 am75 °FSunny.5 mph94%29.95 "Hg10 mi
7:15 am73 °FSunny.2 mph94%29.95 "Hg10 mi
6:45 am73 °FSunny.2 mph94%29.95 "Hg10 mi
6:15 am72 °FSunny.3 mph94%29.95 "Hg10 mi
5:45 am72 °FClear.5 mph100%29.95 "Hg10 mi
5:15 am73 °FClear.5 mph94%29.95 "Hg10 mi
4:45 am73 °FClear.6 mph94%29.95 "Hg10 mi
4:15 am73 °FClear.3 mph94%29.95 "Hg10 mi
3:45 am73 °FClear.3 mph94%29.95 "Hg10 mi
3:15 am73 °FClear.3 mph94%29.95 "Hg10 mi
2:45 am73 °FClear.3 mph94%29.95 "Hg10 mi
2:15 am73 °FClear.3 mph94%29.95 "Hg10 mi
1:45 am75 °FClear.5 mph94%29.95 "Hg10 mi
1:15 am75 °FClear.2 mph94%29.95 "Hg10 mi
12:45 am75 °FClear.2 mph94%29.95 "Hg10 mi
12:15 am75 °FClear.3 mph94%29.95 "Hg10 mi
11:45 pm
Mon, Jul 22
75 °FClear.1 mph100%29.95 "Hg10 mi
11:15 pm77 °FClear.5 mph94%29.92 "Hg10 mi
Weather by CustomWeather, © 2024

See weather overview